Dutch Harbor, AK

3:45 AM AKDT on August 19, 2017 (GMT -0800)
Unalaska

Weather History for PADU - October, 2012

Change the Weather History Date:

Tuesday, October 23, 2012

  Actual Average Record
Temperature  
Mean Temperature 43 °F -  
Max Temperature 44 °F 44 °F 56 °F (1987)
Min Temperature 42 °F 34 °F 31 °F (1983)
Degree Days  
Heating Degree Days 22    
Moisture  
Dew Point 35 °F    
Average Humidity 74    
Maximum Humidity 82    
Minimum Humidity 65    
Precipitation  
Precipitation 0.00 in - - ()
Sea Level Pressure  
Sea Level Pressure 30.03 in    
Wind  
Wind Speed 21 mph (ESE)    
Max Wind Speed 31 mph    
Max Gust Speed 55 mph    
Visibility 10 miles    
Events Rain    
Averages and records for this station are not official NWS values.
T = Trace of Precipitation, MM = Missing Value Source: NWS Daily Summary

Daily Weather History Graph

Daily Weather History Graph

Search for Another Location

Airport or City:

Trip Planner

Search our weather history database for the weather conditions in past years. The results will help you decide how hot, cold, wet, or windy it might be!

Date:

Astronomy

Oct. 23, 2012 Rise Set
Actual Time 9:50 AM AKDT 7:49 PM AKDT
Civil Twilight 9:14 AM AKDT 8:25 PM AKDT
Nautical Twilight 8:32 AM AKDT 9:06 PM AKDT
Astronomical Twilight 7:52 AM AKDT 9:47 PM AKDT
Moon 5:23 PM AKDT (10/23) 3:06 AM AKDT (10/23)
Length of Visible Light 11h 11m
Length of Day
9h 58m
Waxing Gibbous, 68% of the Moon is Illuminated
Oct 23
Waxing Gibbous
Oct 29
Full
Nov 6
Last Quarter
Nov 13
New
Nov 20
First Quarter

Hourly Weather History & Observations

Time (AKDT) Temp. Windchill Dew Point Humidity Pressure Visibility Wind Dir Wind Speed Gust Speed Precip Events Conditions
12:56 AM 43.0 °F 34.5 °F 37.9 °F 82% 30.15 in 9.0 mi SE 19.6 mph 31.1 mph 0.00 in Rain Light Rain
1:56 AM 43.0 °F 34.0 °F 37.0 °F 80% 30.13 in 10.0 mi ESE 21.9 mph 28.8 mph 0.00 in   Overcast
2:56 AM 42.1 °F 31.9 °F 37.0 °F 82% 30.09 in 10.0 mi ESE 26.5 mph 36.8 mph N/A   Overcast
3:56 AM 42.1 °F 32.8 °F 37.0 °F 82% 30.07 in 9.0 mi SE 21.9 mph 39.1 mph 0.00 in Rain Light Rain
4:56 AM 42.1 °F 32.8 °F 37.0 °F 82% 30.06 in 10.0 mi ESE 21.9 mph 35.7 mph 0.00 in Rain Light Rain
5:56 AM 42.1 °F 33.3 °F 37.0 °F 82% 30.05 in 9.0 mi ESE 19.6 mph 36.8 mph 0.00 in Rain Light Rain
6:56 AM 42.1 °F 32.3 °F 37.0 °F 82% 30.04 in 10.0 mi SE 24.2 mph 42.6 mph 0.00 in Rain Light Rain
7:56 AM 42.1 °F 33.9 °F 37.0 °F 82% 30.02 in 10.0 mi East 17.3 mph 34.5 mph 0.00 in   Overcast
8:56 AM 43.0 °F 33.5 °F 35.1 °F 74% 30.00 in 10.0 mi East 24.2 mph 41.4 mph N/A   Overcast
10:19 AM 44.6 °F 35.9 °F 35.6 °F 71% 30.00 in 10.0 mi ESE 23.0 mph 40.3 mph N/A   Overcast
10:56 AM 44.1 °F 33.8 °F 35.1 °F 71% 29.98 in 10.0 mi SE 31.1 mph 48.3 mph N/A   Overcast
11:37 AM 44.6 °F 36.9 °F 35.6 °F 71% 29.99 in 10.0 mi ESE 18.4 mph 55.2 mph N/A   Squalls
11:56 AM 44.1 °F 34.2 °F 35.1 °F 71% 30.00 in 10.0 mi ESE 28.8 mph 49.5 mph N/A   Overcast
12:56 PM 44.1 °F 35.7 °F 35.1 °F 71% 29.99 in 10.0 mi SE 20.7 mph 39.1 mph N/A   Overcast
2:56 PM 44.1 °F 38.1 °F 34.0 °F 68% 29.99 in 10.0 mi East 11.5 mph 44.9 mph N/A   Overcast
3:56 PM 44.1 °F 34.8 °F 33.1 °F 65% 29.98 in 10.0 mi ESE 25.3 mph 41.4 mph N/A   Overcast
4:56 PM 44.1 °F 38.6 °F 34.0 °F 68% 29.97 in 10.0 mi ESE 10.4 mph 38.0 mph N/A   Overcast
5:56 PM 44.1 °F 36.8 °F 35.1 °F 71% 29.98 in 10.0 mi SE 16.1 mph 27.6 mph N/A   Overcast
6:56 PM 44.1 °F 37.4 °F 34.0 °F 68% 30.00 in 10.0 mi ESE 13.8 mph 23.0 mph N/A   Overcast
7:56 PM 44.1 °F 35.9 °F 34.0 °F 68% 30.02 in 10.0 mi SE 19.6 mph 24.2 mph N/A   Overcast
8:56 PM 44.1 °F 35.0 °F 34.0 °F 68% 30.03 in 10.0 mi East 24.2 mph 33.4 mph N/A   Overcast
9:56 PM 43.0 °F 34.2 °F 34.0 °F 71% 30.07 in 10.0 mi East 20.7 mph 27.6 mph N/A   Overcast
10:56 PM 43.0 °F 38.8 °F 33.1 °F 68% 30.09 in 10.0 mi Variable 6.9 mph 19.6 mph N/A   Overcast
11:56 PM 43.0 °F 36.8 °F 34.0 °F 71% 30.09 in 10.0 mi SE 11.5 mph 16.1 mph N/A   Overcast